| time (UTC) | temp F | wind direction | speed knots | gust knots | rain 1hr in | rain 24hr in | rain mn in | humidity % | barometer mb |
| 20260505221516 | 54 | 242 | 0.0 | 0.9 | 0.00 | 0.27 | 0.00 | 89 | 1011.2 |
| 20260505220013 | 54 | 252 | 0.0 | 1.7 | 0.00 | 0.27 | 0.00 | 87 | 1011.2 |
| 20260505214513 | 55 | 123 | 0.0 | 3.5 | 0.00 | 0.27 | 0.27 | 86 | 1011.4 |
| 20260505213012 | 55 | 256 | 0.0 | 2.6 | 0.00 | 0.27 | 0.27 | 86 | 1011.5 |
| 20260505211512 | 55 | 78 | 0.0 | 3.5 | 0.00 | 0.27 | 0.27 | 87 | 1011.5 |
| 20260505210010 | 55 | 94 | 0.9 | 4.3 | 0.00 | 0.27 | 0.27 | 88 | 1011.5 |
| 20260505204510 | 54 | 245 | 0.0 | 2.6 | 0.00 | 0.27 | 0.27 | 91 | 1011.5 |
| 20260505203009 | 55 | 257 | 0.0 | 0.0 | 0.00 | 0.27 | 0.27 | 89 | 1011.6 |
| 20260505201510 | 55 | 251 | 0.0 | 1.7 | 0.00 | 0.27 | 0.27 | 88 | 1011.5 |
| 20260505200015 | 56 | 246 | 0.0 | 1.7 | 0.00 | 0.27 | 0.27 | 88 | 1011.3 |
| 20260505194509 | 56 | 250 | 0.0 | 2.6 | 0.00 | 0.27 | 0.27 | 88 | 1011.2 |
| 20260505193008 | 56 | 258 | 0.0 | 1.7 | 0.00 | 0.27 | 0.27 | 88 | 1011.1 |
| 20260505191507 | 55 | 262 | 0.0 | 2.6 | 0.00 | 0.27 | 0.27 | 90 | 1010.9 |
| 20260505190006 | 55 | 72 | 0.0 | 1.7 | 0.00 | 0.27 | 0.27 | 90 | 1010.9 |
| 20260505184505 | 56 | 82 | 0.0 | 1.7 | 0.01 | 0.27 | 0.27 | 89 | 1010.8 |
| 20260505183005 | 56 | 248 | 0.9 | 1.7 | 0.02 | 0.27 | 0.27 | 88 | 1010.8 |
| 20260505181504 | 56 | 91 | 0.0 | 3.5 | 0.13 | 0.27 | 0.27 | 88 | 1010.5 |
| 20260505180008 | 57 | 139 | 0.0 | 3.5 | 0.15 | 0.27 | 0.27 | 88 | 1010.6 |
| 20260505174503 | 58 | 245 | 2.6 | 8.7 | 0.14 | 0.27 | 0.26 | 88 | 1010.6 |
| 20260505173003 | 59 | 246 | 0.9 | 4.3 | 0.13 | 0.25 | 0.24 | 90 | 1010.6 |
| 20260505171505 | 61 | 248 | 0.9 | 2.6 | 0.02 | 0.14 | 0.13 | 85 | 1010.5 |
| 20260505170005 | 61 | 252 | 0.9 | 2.6 | 0.00 | 0.13 | 0.12 | 82 | 1010.3 |
| 20260505164501 | 62 | 247 | 0.9 | 2.6 | 0.00 | 0.15 | 0.12 | 81 | 1010.2 |
| 20260505163001 | 62 | 252 | 0.0 | 3.5 | 0.00 | 0.15 | 0.12 | 80 | 1010.4 |
| 20260505161501 | 62 | 237 | 0.9 | 3.5 | 0.00 | 0.15 | 0.12 | 82 | 1010.4 |
| 20260505153103 | 60 | 254 | 0.0 | 2.6 | 0.00 | 0.15 | 0.12 | 83 | 1010.4 |
| 20260505151558 | 61 | 259 | 0.0 | 2.6 | 0.00 | 0.15 | 0.12 | 85 | 1010.5 |
| 20260505130107 | 67 | 97 | 0.0 | 3.5 | 0.00 | 0.04 | 0.01 | 66 | 1009.9 |
| 20260505124553 | 67 | 245 | 0.9 | 3.5 | 0.00 | 0.04 | 0.01 | 68 | 1010.2 |
| 20260505123047 | 68 | 240 | 0.0 | 0.9 | 0.00 | 0.04 | 0.01 | 72 | 1010.3 |
| 20260505121543 | 66 | 268 | 0.0 | 0.9 | 0.00 | 0.04 | 0.01 | 74 | 1010.4 |
| 20260505120038 | 65 | 245 | 0.0 | 1.7 | 0.00 | 0.04 | 0.01 | 72 | 1010.5 |
| 20260505114534 | 63 | 240 | 0.0 | 1.7 | 0.00 | 0.04 | 0.01 | 75 | 1010.6 |
| 20260505113030 | 61 | 251 | 0.0 | 0.9 | 0.00 | 0.04 | 0.01 | 85 | 1010.8 |
| 20260505111535 | 60 | 243 | 0.0 | 1.7 | 0.00 | 0.04 | 0.01 | 84 | 1011.2 |
| 20260505101522 | 59 | 254 | 0.9 | 2.6 | 0.00 | 0.04 | 0.01 | 85 | 1011.4 |
| 20260505100027 | 59 | 239 | 0.9 | 2.6 | 0.00 | 0.04 | 0.01 | 87 | 1011.3 |
| 20260505094521 | 59 | 238 | 0.0 | 1.7 | 0.00 | 0.04 | 0.01 | 87 | 1011.2 |
| 20260505093021 | 59 | 235 | 0.0 | 1.7 | 0.00 | 0.04 | 0.01 | 85 | 1011.2 |
| 20260505091520 | 59 | 245 | 0.0 | 0.9 | 0.00 | 0.04 | 0.01 | 85 | 1011.4 |
| 20260505090017 | 58 | 243 | 0.0 | 0.9 | 0.01 | 0.04 | 0.01 | 87 | 1011.2 |
| 20260505084519 | 58 | 245 | 0.0 | 0.9 | 0.01 | 0.04 | 0.01 | 85 | 1011.2 |
| 20260505083014 | 57 | 251 | 0.0 | 2.6 | 0.01 | 0.04 | 0.01 | 90 | 1011.5 |
| 20260505081510 | 57 | 101 | 0.0 | 3.5 | 0.01 | 0.04 | 0.01 | 91 | 1011.7 |
| 20260505080007 | 57 | 252 | 0.9 | 4.3 | 0.00 | 0.03 | 0.00 | 91 | 1011.7 |
| 20260505074506 | 56 | 256 | 0.9 | 4.3 | 0.00 | 0.03 | 0.00 | 90 | 1011.9 |
| 20260505073104 | 56 | 226 | 2.6 | 4.3 | 0.00 | 0.03 | 0.00 | 89 | 1012.0 |
| 20260505071513 | 56 | 243 | 0.9 | 3.5 | 0.00 | 0.03 | 0.00 | 90 | 1012.0 |
| 20260505070001 | 56 | 251 | 1.7 | 3.5 | 0.00 | 0.03 | 0.00 | 91 | 1012.0 |
| 20260505064609 | 55 | 245 | 0.0 | 2.6 | 0.00 | 0.03 | 0.00 | 93 | 1012.1 |
| 20260505063058 | 55 | 247 | 0.0 | 1.7 | 0.00 | 0.03 | 0.00 | 93 | 1012.3 |
| 20260505061601 | 55 | 250 | 0.0 | 0.0 | 0.00 | 0.03 | 0.00 | 93 | 1012.3 |
| 20260505060057 | 54 | 249 | 0.0 | 0.9 | 0.00 | 0.03 | 0.00 | 94 | 1012.4 |
| 20260505054559 | 54 | 246 | 0.0 | 1.7 | 0.00 | 0.03 | 0.00 | 94 | 1012.3 |
| 20260505053104 | 53 | 257 | 0.0 | 1.7 | 0.00 | 0.03 | 0.00 | 95 | 1012.3 |
| 20260505051556 | 53 | 255 | 0.0 | 0.9 | 0.00 | 0.03 | 0.00 | 95 | 1012.4 |
| 20260505041556 | 53 | 252 | 0.0 | 0.0 | 0.00 | 0.03 | 0.00 | 93 | 1012.1 |
| 20260505040053 | 54 | 253 | 0.0 | 0.0 | 0.00 | 0.03 | 0.00 | 93 | 1012.2 |
| 20260505034551 | 54 | 253 | 0.0 | 0.9 | 0.00 | 0.03 | 0.00 | 92 | 1012.2 |
| 20260505033049 | 54 | 254 | 0.0 | 0.9 | 0.00 | 0.03 | 0.00 | 93 | 1012.3 |
| 20260505031549 | 54 | 100 | 0.0 | 0.0 | 0.00 | 0.03 | 0.00 | 93 | 1012.3 |
| 20260505030048 | 54 | 101 | 0.0 | 0.0 | 0.00 | 0.03 | 0.00 | 92 | 1012.3 |
| 20260505024547 | 54 | 100 | 0.0 | 0.9 | 0.00 | 0.03 | 0.00 | 92 | 1012.3 |
| 20260505023051 | 53 | 118 | 0.0 | 0.0 | 0.00 | 0.03 | 0.00 | 93 | 1012.4 |
| 20260505021545 | 53 | 118 | 0.0 | 0.0 | 0.00 | 0.03 | 0.00 | 93 | 1012.6 |
| 20260505020043 | 53 | 118 | 0.0 | 0.0 | 0.00 | 0.03 | 0.00 | 93 | 1012.8 |
| 20260505014541 | 53 | 118 | 0.0 | 0.0 | 0.00 | 0.03 | 0.00 | 94 | 1012.9 |
| 20260505013040 | 53 | 118 | 0.0 | 0.0 | 0.00 | 0.03 | 0.00 | 94 | 1013.1 |
| 20260505011548 | 53 | 118 | 0.0 | 0.0 | 0.00 | 0.03 | 0.00 | 94 | 1013.2 |
| 20260505010038 | 53 | 118 | 0.0 | 0.0 | 0.00 | 0.03 | 0.00 | 94 | 1013.4 |
| 20260505004536 | 53 | 118 | 0.0 | 0.0 | 0.00 | 0.03 | 0.00 | 93 | 1013.4 |
| 20260505003032 | 54 | 118 | 0.0 | 0.0 | 0.00 | 0.03 | 0.00 | 93 | 1013.8 |
| 20260505001531 | 54 | 118 | 0.0 | 0.9 | 0.00 | 0.03 | 0.00 | 93 | 1014.0 |
| 20260505000029 | 54 | 120 | 0.0 | 0.0 | 0.00 | 0.03 | 0.00 | 93 | 1014.0 |
| 20260504234526 | 55 | 120 | 0.0 | 0.0 | 0.00 | 0.03 | 0.00 | 93 | 1014.1 |
| 20260504233025 | 55 | 117 | 0.0 | 0.9 | 0.00 | 0.03 | 0.00 | 92 | 1014.2 |
| 20260504231523 | 55 | 117 | 0.0 | 0.0 | 0.00 | 0.03 | 0.00 | 92 | 1014.5 |
| 20260504230022 | 55 | 79 | 0.0 | 2.6 | 0.00 | 0.03 | 0.00 | 91 | 1014.5 |
| 20260504224521 | 55 | 283 | 0.0 | 0.0 | 0.00 | 0.03 | 0.00 | 93 | 1014.6 |
| 20260504223020 | 55 | 283 | 0.0 | 0.0 | 0.00 | 0.03 | 0.00 | 93 | 1014.7 |